Akron Canton, OH

4:53 AM EDT on May 28, 2017 (GMT -0400)
Akron-Canton Regional

Weather History for KCAK - March, 2014

Change the Weather History Date:

Saturday, March 29, 2014

  Actual Average Record
Temperature  
Mean Temperature 37 °F 42 °F  
Max Temperature 41 °F 52 °F 80 °F (1910)
Min Temperature 32 °F 33 °F 9 °F (1887)
Degree Days  
Heating Degree Days 28 23  
Month to date heating degree days 966 807  
Since 1 July heating degree days 5789 5351  
Cooling Degree Days 0 0  
Month to date cooling degree days 0 0  
Year to date cooling degree days 0 0  
Moisture  
Dew Point 32 °F    
Average Humidity 87    
Maximum Humidity 100    
Minimum Humidity 73    
Precipitation  
Precipitation 1.07 in 0.10 in 1.07 in (2014)
Month to date precipitation 2.55 2.75  
Year to date precipitation 6.06 7.67  
Snow  
Snow 1.00 in 0.20 in - ()
Month to date snowfall 9.9 7.9  
Since 1 July snowfall 69.2 44.4  
Snow Depth 0.00 in    
Sea Level Pressure  
Sea Level Pressure 30.01 in    
Wind  
Wind Speed 14 mph (NE)    
Max Wind Speed 23 mph    
Max Gust Speed 23 mph    
Visibility 6 miles    
Events Rain , Snow    
T = Trace of Precipitation, MM = Missing Value Source: NWS Daily Summary

Daily Weather History Graph

Daily Weather History Graph

Search for Another Location

Airport or City:

Trip Planner

Search our weather history database for the weather conditions in past years. The results will help you decide how hot, cold, wet, or windy it might be!

Date:

Astronomy

Mar. 29, 2014 Rise Set
Actual Time 7:14 AM EDT 7:47 PM EDT
Civil Twilight 6:46 AM EDT 8:15 PM EDT
Nautical Twilight 6:14 AM EDT 8:47 PM EDT
Astronomical Twilight 5:40 AM EDT 9:21 PM EDT
Moon 6:22 AM EDT (3/29) 6:50 PM EDT (3/29)
Length of Visible Light 13h 28m
Length of Day
12h 33m
Waning Crescent, 2% of the Moon is Illuminated
Mar 29
Waning Crescent
Mar 30
New
Apr 7
First Quarter
Apr 15
Full
Apr 22
Last Quarter

Hourly Weather History & Observations

Time (EDT) Temp. Windchill Dew Point Humidity Pressure Visibility Wind Dir Wind Speed Gust Speed Precip Events Conditions
12:51 AM 41.0 °F 35.8 °F 33.1 °F 73% 30.17 in 10.0 mi NE 8.1 mph - N/A   Overcast
1:51 AM 39.0 °F 32.8 °F 34.0 °F 82% 30.15 in 10.0 mi East 9.2 mph - N/A   Overcast
2:35 AM 37.4 °F 30.8 °F 32.0 °F 81% 30.14 in 10.0 mi East 9.2 mph - N/A   Scattered Clouds
2:51 AM 37.0 °F 30.4 °F 32.0 °F 82% 30.16 in 10.0 mi East 9.2 mph - N/A   Partly Cloudy
3:08 AM 37.4 °F 31.4 °F 32.0 °F 81% 30.13 in 10.0 mi East 8.1 mph - N/A   Mostly Cloudy
3:51 AM 37.0 °F 30.4 °F 32.0 °F 82% 30.12 in 10.0 mi East 9.2 mph - N/A   Overcast
4:36 AM 35.6 °F 26.6 °F 30.2 °F 81% 30.10 in 10.0 mi ENE 13.8 mph - N/A   Scattered Clouds
4:51 AM 34.0 °F 26.6 °F 30.0 °F 85% 30.12 in 10.0 mi ENE 9.2 mph - N/A   Partly Cloudy
5:27 AM 33.8 °F 26.4 °F 30.2 °F 87% 30.08 in 10.0 mi NE 9.2 mph - N/A   Mostly Cloudy
5:51 AM 33.1 °F 26.1 °F 30.0 °F 89% 30.11 in 10.0 mi ENE 8.1 mph - N/A   Mostly Cloudy
6:17 AM 33.8 °F 26.4 °F 30.2 °F 87% 30.10 in 10.0 mi ENE 9.2 mph - N/A   Overcast
6:51 AM 33.1 °F 24.4 °F 28.9 °F 85% 30.11 in 10.0 mi ENE 11.5 mph - N/A   Overcast
7:51 AM 33.1 °F 26.1 °F 28.9 °F 85% 30.10 in 10.0 mi East 8.1 mph - N/A   Overcast
8:51 AM 34.0 °F 27.2 °F 28.0 °F 79% 30.08 in 7.0 mi East 8.1 mph - N/A   Overcast
9:51 AM 36.0 °F 29.0 °F 30.0 °F 79% 30.06 in 7.0 mi ENE 9.2 mph - N/A   Overcast
10:51 AM 38.8 °F 32.6 °F 32.7 °F 79% 30.01 in 7.0 mi ENE 9.2 mph - N/A   Overcast
11:51 AM 39.9 °F 31.8 °F 34.0 °F 79% 29.99 in 7.0 mi NNE 15.0 mph - 0.00 in Rain Light Rain
12:51 PM 39.9 °F 31.8 °F 37.0 °F 89% 29.95 in 6.0 mi NNE 15.0 mph - N/A Rain Light Rain
1:05 PM 39.2 °F 30.8 °F 37.4 °F 93% 29.92 in 2.0 mi NNE 15.0 mph - N/A Rain Light Rain
1:51 PM 37.9 °F 29.2 °F 37.0 °F 97% 29.92 in 1.5 mi NNE 15.0 mph - N/A Rain Light Rain
2:51 PM 36.0 °F 26.0 °F 35.1 °F 97% 29.91 in 1.5 mi NNE 17.3 mph - N/A Rain Light Rain
3:51 PM 34.9 °F 24.6 °F 34.5 °F 99% 29.87 in 1.5 mi NNE 17.3 mph - 0.21 in Rain Light Rain
4:51 PM 34.9 °F 24.6 °F 34.5 °F 99% 29.87 in 1.5 mi North 17.3 mph - 0.14 in Rain Light Rain
5:51 PM 34.2 °F 23.6 °F 32.7 °F 94% 29.88 in 1.5 mi North 17.3 mph - 0.08 in Rain , Snow Light Snow
6:51 PM 34.2 °F 22.6 °F 32.7 °F 94% 29.88 in 2.5 mi North 20.7 mph - 0.08 in Rain , Snow Light Rain
7:51 PM 34.0 °F 22.1 °F 32.0 °F 92% 29.88 in 5.0 mi North 21.9 mph - 0.06 in Rain , Snow Light Rain
8:39 PM 32.0 °F 19.5 °F 30.2 °F 93% 29.86 in 2.0 mi North 21.9 mph - N/A Snow Light Snow
8:51 PM 32.4 °F 19.7 °F 30.4 °F 92% 29.90 in 1.5 mi North 23.0 mph - N/A Snow Light Snow
9:16 PM 32.0 °F 19.2 °F 30.2 °F 93% 29.87 in 0.8 mi North 23.0 mph - N/A Snow Light Snow
9:51 PM 32.4 °F 19.7 °F 30.4 °F 92% 29.92 in 0.8 mi North 23.0 mph - 0.03 in Snow Light Snow
10:51 PM 32.2 °F 21.1 °F 31.1 °F 96% 29.93 in 0.8 mi North 17.3 mph - 0.03 in Snow Light Snow
11:25 PM 32.0 °F 20.8 °F 32.0 °F 100% 29.91 in 1.0 mi North 17.3 mph - N/A Snow Light Snow
11:51 PM 32.2 °F 21.8 °F 31.1 °F 96% 29.95 in 1.0 mi North 15.0 mph - 0.01 in Snow Light Snow